Location: Boiro
(42.6475°N, 8.8834°W)
Time: 04:21:06
(UTC+02:00)

BEESAT 2 - Visible Passes

Search period start: 18 August 2022 00:00
Search period end: 28 August 2022 00:00
Orbit: 480 x 508 km, 64.9° (Epoch: 16 August)

Date Brightness Start Highest point End Pass type
(mag) Time Alt. Az. Time Alt. Az. Time Alt. Az.
18 Aug ? 01:06:59 22° NNW 01:06:59 22° NNW 01:08:56 10° NNE visible
19 Aug ? 00:43:36 30° NNW 00:43:36 30° NNW 00:46:27 10° NNE visible
19 Aug ? 07:16:34 10° N 07:19:27 19° NE 07:22:18 10° E visible
19 Aug ? 22:44:39 17° E 22:44:39 17° E 22:46:13 10° ENE visible
20 Aug ? 00:18:53 26° W 00:20:21 36° NW 00:23:56 10° NNE visible
20 Aug ? 06:54:08 10° N 06:56:48 18° NE 06:59:28 10° E visible
20 Aug ? 22:18:21 10° SSE 22:20:52 17° ESE 22:23:24 10° ENE visible
20 Aug ? 23:54:07 10° WSW 23:57:44 41° NW 00:01:23 10° NNE visible
21 Aug ? 06:31:42 10° N 06:34:08 16° NE 06:36:35 10° E visible
21 Aug ? 21:56:08 10° SE 21:58:19 15° ESE 22:00:31 10° ENE visible
21 Aug ? 23:31:25 10° SW 23:35:06 47° NW 23:38:50 10° NNE visible
22 Aug ? 06:09:16 10° N 06:11:28 14° NE 06:13:38 10° ENE visible
22 Aug ? 23:08:45 10° SW 23:12:28 54° NW 23:16:15 10° NNE visible
23 Aug ? 05:46:53 10° N 05:48:45 13° NE 05:50:38 10° ENE visible
23 Aug ? 22:46:04 10° SW 22:49:49 63° NW 22:53:38 10° NNE visible
24 Aug ? 05:24:34 10° NNE 05:26:03 12° NE 05:27:32 10° ENE visible
24 Aug ? 06:59:57 10° NNW 07:03:50 85° NE 07:07:41 10° SE visible
24 Aug ? 22:23:23 10° SW 22:27:10 73° NW 22:31:01 10° NNE visible
25 Aug ? 00:04:16 10° NW 00:05:03 10° NW 00:05:49 10° NNW visible
25 Aug ? 05:02:23 10° NNE 05:03:18 11° NE 05:04:13 10° NE visible
25 Aug ? 06:37:19 10° NNW 06:41:11 74° NE 06:45:01 10° SE visible
25 Aug ? 22:00:43 10° SW 22:04:30 85° WNW 22:08:21 10° NNE visible
25 Aug ? 23:40:54 10° WNW 23:42:18 12° NW 23:43:42 10° NNW visible
26 Aug ? 06:14:39 10° NNW 06:18:31 63° NE 06:22:19 10° SE visible
26 Aug ? 23:17:45 10° WNW 23:19:33 13° NW 23:21:21 10° N visible
27 Aug ? 05:52:01 10° NNW 05:55:49 55° NE 05:59:35 10° SE visible
27 Aug ? 22:54:40 10° WNW 22:56:47 14° NW 22:58:55 10° N visible
